FW8702 Weather Reports


time (UTC)temp
C
wind
direction
speed
KPH
gust
KPH
rain 1hr
cm
rain 24hr
cm
rain mn
cm
humidity
%
barometer
mb
20260506211512 12 54 0.0 14.5 0.13 3.43 3.43 86 1013.0
20260506210009 12 61 0.0 9.7 0.13 3.56 3.43 86 1012.9
20260506204534 12 97 0.0 3.2 0.08 3.51 3.38 86 1012.8
20260506203049 12 179 0.0 0.0 0.03 3.45 3.33 86 1012.8
20260506201508 12 87 0.0 1.6 0.00 3.43 3.30 87 1012.8
20260506200025 12 51 0.0 3.2 0.00 3.66 3.30 90 1012.6
20260506194552 12 291 0.0 0.0 0.00 3.66 3.30 91 1012.4
20260506193059 12 291 0.0 0.0 0.00 3.66 3.30 90 1012.2
20260506191522 12 291 0.0 0.0 0.00 3.66 3.30 89 1011.9
20260506190032 12 37 0.0 0.0 0.00 3.81 3.30 88 1011.6
20260506184604 12 37 0.0 0.0 0.08 3.81 3.30 87 1011.5
20260506183010 13 105 1.6 12.9 0.20 3.81 3.30 85 1010.8
20260506181527 13 111 1.6 16.1 0.61 3.81 3.30 85 1010.8
20260506180028 12 83 0.0 16.1 0.61 3.96 3.30 86 1010.4
20260506174539 12 84 0.0 1.6 0.53 3.89 3.23 85 1010.6
20260506173136 13 75 0.0 8.0 0.43 3.78 3.12 81 1010.3
20260506171600 15 105 0.0 17.7 0.00 3.35 2.69 74 1010.0
20260506170011 16 88 0.0 3.2 0.00 3.45 2.69 73 1009.8
20260506164526 16 97 0.0 11.3 0.00 3.45 2.69 72 1009.8
20260506163102 16 77 0.0 14.5 0.00 3.45 2.69 72 1009.6
20260506161513 16 104 0.0 4.8 0.00 3.45 2.69 72 1009.3
20260506160016 15 124 3.2 19.3 0.00 3.51 2.69 74 1009.1
20260506154536 15 106 0.0 20.9 0.00 3.51 2.69 75 1009.5
20260506153047 15 81 0.0 12.9 0.00 3.51 2.69 76 1009.6
20260506151507 15 76 0.0 11.3 0.00 3.51 2.69 77 1010.0
20260506150024 15 91 0.0 16.1 0.00 3.51 2.69 77 1009.9
20260506144554 15 57 3.2 14.5 0.00 3.51 2.69 79 1009.9
20260506143020 15 51 11.3 25.7 0.00 3.51 2.69 80 1010.1
20260506141533 15 99 0.0 19.3 0.00 3.51 2.69 80 1010.1
20260506140044 15 88 0.0 6.4 0.00 3.51 2.69 81 1010.1
20260506134555 15 69 0.0 3.2 0.00 3.51 2.69 82 1010.1
20260506133021 13 53 0.0 8.0 0.00 3.51 2.69 85 1010.6
20260506131552 12 38 0.0 8.0 0.00 3.51 2.69 87 1010.7
20260506130034 12 46 0.0 4.8 0.43 3.53 2.69 91 1010.6
20260506124547 11 13 0.0 0.0 1.12 3.53 2.69 94 1010.5
20260506123016 10 34 0.0 3.2 1.19 3.53 2.69 93 1010.6
20260506121543 10 17 0.0 8.0 1.19 3.53 2.69 92 1010.8
20260506120106 10 321 0.0 9.7 0.76 3.12 2.26 91 1010.8
20260506114534 10 308 3.2 35.4 0.20 2.44 1.57 89 1010.2
20260506113049 11 28 4.8 25.7 0.41 2.36 1.50 86 1010.0
20260506111518 12 22 4.8 16.1 0.41 2.36 1.50 88 1009.9
20260506110033 13 202 0.0 16.1 0.41 2.41 1.50 90 1009.6
20260506104547 14 128 1.6 17.7 0.28 2.29 1.37 88 1009.4
20260506103016 14 151 3.2 19.3 0.00 2.01 1.09 85 1009.5
20260506101539 15 109 3.2 20.9 0.00 2.01 1.09 85 1009.8
20260506100051 15 142 1.6 19.3 0.00 2.03 1.09 84 1009.7
20260506094515 16 126 3.2 22.5 0.00 2.03 1.09 85 1009.4
20260506093045 15 126 3.2 29.0 0.00 2.03 1.09 86 1009.2
20260506091538 15 133 3.2 29.0 0.00 2.03 1.09 88 1009.2
20260506090058 13 143 1.6 17.7 0.00 2.06 1.09 90 1009.1
20260506084511 13 170 4.8 27.4 0.00 2.06 1.09 93 1009.2
20260506083040 13 136 1.6 20.9 0.00 2.06 1.09 95 1009.5
20260506081604 13 145 0.0 3.2 0.00 2.06 1.09 97 1009.5
20260506073032 13 177 0.0 0.0 0.00 2.26 1.09 97 1009.9
20260506071512 13 166 0.0 0.0 0.00 2.26 1.09 97 1009.9
20260506061558 13 155 0.0 0.0 0.00 2.59 1.09 97 1010.1
20260506050104 12 119 0.0 0.0 0.71 2.77 1.07 97 1010.6
20260506044525 12 319 0.0 0.0 0.69 2.79 1.02 97 1010.9
20260506043016 12 319 0.0 0.0 0.03 2.13 0.36 97 1011.1
20260506041557 12 319 0.0 0.0 0.03 2.13 0.36 97 1011.0
20260506034526 12 319 0.0 0.0 0.00 2.11 0.33 97 1011.2
20260506033056 12 319 0.0 0.0 0.03 2.11 0.33 97 1011.3
20260506031520 12 319 0.0 0.0 0.03 2.11 0.33 97 1011.3
20260506024534 12 319 0.0 0.0 0.05 2.11 0.33 97 1012.0
20260506023001 12 319 0.0 0.0 0.03 2.08 0.30 97 1012.1
20260506021531 12 319 0.0 0.0 0.03 2.08 0.30 97 1012.4
20260506020106 12 319 0.0 0.0 0.20 2.06 0.28 97 1012.3
20260506014550 12 319 0.0 0.0 0.23 2.06 0.28 97 1012.5
20260506013014 12 319 0.0 0.0 0.23 2.06 0.28 97 1012.4
20260506011547 12 319 0.0 0.0 0.23 2.06 0.28 97 1012.5
20260506010036 12 319 0.0 0.0 0.05 1.85 0.08 97 1012.8
20260506004501 12 319 0.0 0.0 0.05 1.83 0.05 97 1013.0
20260506003030 12 319 0.0 0.0 0.05 1.83 0.05 97 1013.1
20260506001608 12 319 0.0 0.0 0.05 1.83 0.05 97 1013.1
20260506000125 12 319 0.0 0.0 0.03 1.80 0.03 97 1013.2
20260505234512 12 319 0.0 0.0 0.00 1.78 0.00 97 1013.5
20260505233022 12 319 0.0 0.0 0.00 1.78 0.00 97 1013.6
20260505231529 12 319 0.0 0.0 0.00 1.78 0.00 97 1013.7
20260505230048 12 319 0.0 0.0 0.00 1.78 0.00 97 1013.8
20260505224507 12 319 0.0 0.0 0.00 1.78 0.00 97 1014.0
20260505223021 12 319 0.0 0.0 0.00 1.78 0.00 96 1014.2
20260505221557 12 319 0.0 0.0 0.00 1.78 0.00 96 1014.0
20260505220107 12 319 0.0 0.0 0.00 1.78 0.00 96 1014.1
20260505214523 12 319 0.0 0.0 0.03 1.78 1.78 97 1014.3
20260505213051 12 319 0.0 0.0 0.05 1.78 1.78 96 1014.5